Terminal Aerodrome Forecast
Issued by NWS State College, PA

Home | Current Version | Previous Version | Text Only | Print | Product List | Glossary On
Versions: 1 2 3 4 5 6 7 8 9 10 11 12 13 14 15 16 17 18 19 20 21 22 23 24 25 26 27 28 29 30 31 32 33 34 35 36 37 38 39 40 41 42 43 44 45 46 47 48 49
000
FTUS41 KCTP 250555
TAFIPT
TAF
KIPT 250555Z 2506/2606 05005KT P6SM -RA SCT018 BKN060 OVC120
     FM250900 21006KT P6SM VCSH OVC025
     FM251300 26010KT P6SM BKN040
     FM251730 27012G20KT P6SM SCT050
     FM252330 28007KT P6SM SKC=

USA.gov is the U.S. government's official web portal to all federal, state and local government web resources and services.